This demonstration page uses our WeatherBlox Daily Observations layout. Learn more.

Left ArrowRight Arrow

36.17497, -115.13722

Hourly Observations for July 14, 2017

Temp ( °F °C ) Dew Point ( °F °C ) Humidity (%) Winds ( mph kmh ) Pressure ( in mb ) Visibility ( mi km ) Precip ( " mm )
12:53 am 00:53 Clear 91 32.8 37 2.8 15 15 ENE 12 19 29.87 1012 10 16 N/A
1:53 am 01:53 Clear 92 33.3 36 2.2 14 14 NNE 8 13 29.88 1012 10 16 N/A
2:53 am 02:53 Clear 89 31.7 38 3.3 16 16 N 5 7 29.88 1012 10 16 N/A
3:53 am 03:53 Clear 87 30.6 43 6.1 21 21 WNW 6 9 29.88 1012 10 16 N/A
4:53 am 04:53 Clear 85 29.4 42 5.6 22 22 N N/A 29.88 1012 10 16 N/A
5:53 am 05:53 Sunny 86 30 41 5 20 20 N N/A 29.90 1012 10 16 N/A
6:53 am 06:53 Sunny 88 31.1 41 5 19 19 SSE 5 7 29.92 1013 10 16 N/A
7:53 am 07:53 Sunny 91 32.8 40 4.4 17 17 N 5 7 29.93 1014 10 16 N/A
8:53 am 08:53 Sunny 95 35 39 3.9 14 14 VRB 6 9 29.94 1014 10 16 N/A
9:53 am 09:53 Sunny 98 36.7 40 4.4 13 13 N N/A 29.94 1014 10 16 N/A
10:53 am 10:53 Sunny 99 37.2 38 3.3 12 12 N N/A 29.93 1014 10 16 N/A
11:53 am 11:53 Sunny 102 38.9 40 4.4 12 12 VRB 6 9 29.93 1013 10 16 N/A
12:53 pm 12:53 Sunny 105 40.6 38 3.3 10 10 SE 9 15 29.91 1013 10 16 N/A
1:53 pm 13:53 Sunny 106 41.1 37 2.8 9 9 S 8 13 29.88 1012 10 16 N/A
2:53 pm 14:53 Sunny 107 41.7 38 3.3 9 9 SSE 12 19 29.86 1011 10 16 N/A
3:53 pm 15:53 Sunny 109 42.8 38 3.3 9 9 SSE 12 19 29.83 1010 10 16 N/A
4:53 pm 16:53 Sunny 109 42.8 38 3.3 9 9 VRB 5 7 29.81 1010 10 16 N/A
5:53 pm 17:53 Sunny 108 42.2 36 2.2 8 8 SSE 6 9 29.80 1009 10 16 N/A
6:53 pm 18:53 Sunny 107 41.7 41 5 11 11 S 6 9 29.80 1009 10 16 N/A
7:53 pm 19:53 Sunny 106 41.1 38 3.3 10 10 W 9 15 29.80 1009 10 16 N/A
8:53 pm 20:53 Clear 103 39.4 39 3.9 11 11 W 8 13 29.82 1010 10 16 N/A
9:53 pm 21:53 Clear 102 38.9 38 3.3 11 11 W 14 22 29.83 1010 10 16 N/A
10:53 pm 22:53 Clear 100 37.8 39 3.9 12 12 N N/A 29.84 1011 10 16 N/A
11:53 pm 23:53 Clear 96 35.6 42 5.6 15 15 N N/A 29.84 1011 10 16 N/A

Powered by AerisWeather